Location: Stockholm
(59.3330°N, 18.0500°E)
Time: 11:29:48
(UTC+01:00)

FENGYUN 1C DEB - Pass Details

Date: 12 December 2023
Orbit: 841 x 915 km, 98.8° (Epoch: 21 February)

Event Time Altitude Azimuth Distance (km) Brightness Sun altitude
Exits shadow 16:57:56 11° 26° (NNE) 2,435 ? -14.4°
Maximum altitude 16:58:06 11° 24° (NNE) 2,434 ? -14.4°
Drops below altitude 10° 16:59:16 10° 11° (NNE) 2,486 ? -14.6°
Sets 17:03:51 0° 336° (NNW) 3,440 ? -15.1°
